Weather History for Traverse City, MI

Change the Weather History Date:

Friday, September 21, 2012

  Actual Average Record
Temperature  
Mean Temperature 53 °F 58 °F  
Max Temperature 62 °F 68 °F 88 °F (1914)
Min Temperature 44 °F 48 °F 33 °F (1973)
Degree Days  
Heating Degree Days 12 8  
Month to date heating degree days 84 106  
Since 1 July heating degree days 99 175  
Cooling Degree Days 0 1  
Month to date cooling degree days 56 33  
Year to date cooling degree days 808 402  
Growing Degree Days 2 (Base 50)    
Moisture  
Dew Point 44 °F    
Average Humidity 72    
Maximum Humidity 93    
Minimum Humidity 51    
Precipitation  
Precipitation 0.12 in 0.12 in 2.20 in (1947)
Month to date precipitation 3.04 2.49  
Year to date precipitation 21.26 23.60  
Sea Level Pressure  
Sea Level Pressure 29.80 in    
Wind  
Wind Speed 6 mph (SW)    
Max Wind Speed 16 mph    
Max Gust Speed 25 mph    
Visibility 10 miles    
Events Rain    
T = Trace of Precipitation, MM = Missing Value Source: NWS Daily Summary

Daily Weather History Graph

Daily Weather History Graph

Search for Another Location

Airport:

Trip Planner

Search our weather history database for the weather conditions in past years. The results will help you decide how hot, cold, wet, or windy it might be!

Date:

Astronomy

Sep. 21, 2012 Rise Set
Actual Time 7:28 AM EDT 7:40 PM EDT
Civil Twilight 6:59 AM EDT 8:09 PM EDT
Nautical Twilight 6:25 AM EDT 8:44 PM EDT
Astronomical Twilight 5:50 AM EDT 9:19 PM EDT
Moon 2:05 PM EDT 11:25 PM EDT
Length of Visible Light 13h 10m
Length of Day
12h 11m
Waxing Crescent, 37% of the Moon is Illuminated
Sep 21
Waxing Crescent
Sep 22
First Quarter
Sep 29
Full
Oct 8
Last Quarter
Oct 15
New

Hourly Weather History & Observations

Time (EDT) Temp. Windchill Dew Point Humidity Pressure Visibility Wind Dir Wind Speed Gust Speed Precip Events Conditions
12:53 AM 48.9 °F - 46.0 °F 90% 29.86 in 10.0 mi SSW 5.8 mph - N/A   Clear
1:53 AM 48.0 °F - 45.0 °F 89% 29.84 in 10.0 mi SSW 5.8 mph - N/A   Clear
2:53 AM 48.0 °F - 45.0 °F 89% 29.86 in 10.0 mi SSW 5.8 mph - N/A   Clear
3:53 AM 46.0 °F 43.1 °F 43.0 °F 89% 29.86 in 10.0 mi SSW 5.8 mph - N/A   Clear
4:53 AM 45.0 °F 43.5 °F 42.1 °F 90% 29.85 in 10.0 mi South 3.5 mph - N/A   Clear
5:53 AM 44.1 °F 42.5 °F 42.1 °F 93% 29.85 in 10.0 mi South 3.5 mph - N/A   Clear
6:53 AM 45.0 °F 43.5 °F 42.1 °F 90% 29.84 in 10.0 mi South 3.5 mph - N/A   Scattered Clouds
7:53 AM 46.9 °F - 43.0 °F 86% 29.85 in 10.0 mi Variable 3.5 mph - N/A   Mostly Cloudy
8:53 AM 50.0 °F - 45.0 °F 83% 29.83 in 10.0 mi Variable 4.6 mph - N/A   Mostly Cloudy
9:53 AM 55.0 °F - 48.0 °F 77% 29.83 in 10.0 mi Variable 6.9 mph - 0.01 in Rain Light Rain
10:53 AM 55.0 °F - 48.0 °F 77% 29.83 in 10.0 mi Variable 6.9 mph - 0.00 in   Overcast
11:53 AM 55.9 °F - 48.0 °F 75% 29.81 in 10.0 mi Variable 4.6 mph - 0.00 in Rain Light Rain
12:53 PM 60.1 °F - 48.0 °F 64% 29.79 in 10.0 mi SSW 8.1 mph - 0.00 in   Mostly Cloudy
1:53 PM 61.0 °F - 45.0 °F 56% 29.77 in 10.0 mi SW 9.2 mph 17.3 mph 0.00 in Rain Light Rain
2:53 PM 61.0 °F - 44.1 °F 54% 29.78 in 10.0 mi West 17.3 mph 24.2 mph 0.03 in   Mostly Cloudy
3:53 PM 60.1 °F - 44.1 °F 55% 29.77 in 10.0 mi WSW 10.4 mph 20.7 mph N/A   Mostly Cloudy
4:53 PM 60.1 °F - 42.1 °F 51% 29.76 in 10.0 mi WSW 13.8 mph - N/A   Mostly Cloudy
5:53 PM 60.1 °F - 43.0 °F 53% 29.75 in 10.0 mi WSW 8.1 mph 21.9 mph N/A   Mostly Cloudy
6:53 PM 57.9 °F - 43.0 °F 58% 29.76 in 10.0 mi West 8.1 mph - N/A   Mostly Cloudy
7:53 PM 53.1 °F - 45.0 °F 74% 29.77 in 10.0 mi Calm Calm - N/A   Mostly Cloudy
8:53 PM 53.1 °F - 44.1 °F 71% 29.76 in 10.0 mi South 3.5 mph - N/A   Overcast
9:53 PM 52.0 °F - 42.1 °F 69% 29.76 in 10.0 mi Variable 3.5 mph - 0.00 in   Overcast
10:53 PM 51.1 °F - 44.1 °F 77% 29.75 in 10.0 mi Calm Calm - N/A   Overcast
11:53 PM 50.0 °F - 46.0 °F 86% 29.74 in 2.0 mi Calm Calm - 0.06 in Rain Rain